Greenville Downtown, SC

4:58 PM EDT on June 26, 2017 (GMT -0400)
Greenville Downtown

Weather History for KGMU - May, 2014

Change the Weather History Date:

Tuesday, May 20, 2014

  Actual Average Record
Temperature  
Mean Temperature 68 °F -  
Max Temperature 80 °F 78 °F 89 °F (1998)
Min Temperature 57 °F 58 °F 46 °F (2002)
Cooling Degree Days 3    
Growing Degree Days 18 (Base 50)    
Moisture  
Dew Point 56 °F    
Average Humidity 62    
Maximum Humidity 83    
Minimum Humidity 48    
Precipitation  
Precipitation 0.00 in - - ()
Sea Level Pressure  
Sea Level Pressure 30.20 in    
Wind  
Wind Speed 6 mph (SW)    
Max Wind Speed 14 mph    
Max Gust Speed 23 mph    
Visibility 10 miles    
Events      
Averages and records for this station are not official NWS values.
T = Trace of Precipitation, MM = Missing Value Source: NWS Daily Summary

Daily Weather History Graph

Daily Weather History Graph

Search for Another Location

Airport or City:

Trip Planner

Search our weather history database for the weather conditions in past years. The results will help you decide how hot, cold, wet, or windy it might be!

Date:

Astronomy

May. 20, 2014 Rise Set
Actual Time 6:22 AM EDT 8:29 PM EDT
Civil Twilight 5:54 AM EDT 8:58 PM EDT
Nautical Twilight 5:19 AM EDT 9:32 PM EDT
Astronomical Twilight 4:42 AM EDT 10:10 PM EDT
Moon 1:04 AM EDT (5/20) 12:21 PM EDT (5/20)
Length of Visible Light 15h 03m
Length of Day
14h 06m
Waning Gibbous, 60% of the Moon is Illuminated
May 20
Waning Gibbous
May 21
Last Quarter
May 28
New
Jun 5
First Quarter
Jun 13
Full

Hourly Weather History & Observations

Time (EDT) Temp. Dew Point Humidity Pressure Visibility Wind Dir Wind Speed Gust Speed Precip Events Conditions
12:53 AM 61.0 °F 50.0 °F 67% 30.23 in 10.0 mi Calm Calm - N/A   Clear
2:53 AM 57.0 °F 50.0 °F 77% 30.22 in 10.0 mi Calm Calm - N/A   Clear
3:53 AM 57.0 °F 48.9 °F 74% 30.23 in 10.0 mi SSE 4.6 mph - N/A   Clear
6:53 AM 57.0 °F 52.0 °F 83% 30.28 in 10.0 mi Calm Calm - N/A   Clear
8:53 AM 62.1 °F 55.0 °F 78% 30.29 in 10.0 mi SW 9.2 mph - N/A   Clear
9:53 AM 66.9 °F 55.9 °F 68% 30.28 in 10.0 mi SSW 9.2 mph - N/A   Clear
10:53 AM 70.0 °F 55.0 °F 59% 30.28 in 10.0 mi SSW 11.5 mph - N/A   Partly Cloudy
11:53 AM 72.0 °F 55.0 °F 55% 30.27 in 10.0 mi SW 12.7 mph - N/A   Mostly Cloudy
12:00 PM 71.1 °F 55.0 °F 57% 30.28 in 10.0 mi SSW 13.8 mph 18.4 mph N/A   Mostly Cloudy
12:53 PM 75.0 °F 54.0 °F 48% 30.24 in 10.0 mi West 11.5 mph - N/A   Partly Cloudy
1:53 PM 77.0 °F 55.9 °F 48% 30.22 in 10.0 mi WSW 12.7 mph 23.0 mph N/A   Clear
2:53 PM 77.0 °F 57.9 °F 52% 30.20 in 10.0 mi SSW 11.5 mph 20.7 mph N/A   Mostly Cloudy
3:53 PM 79.0 °F 57.9 °F 48% 30.18 in 10.0 mi WSW 13.8 mph - N/A   Mostly Cloudy
5:53 PM 79.0 °F 59.0 °F 50% 30.14 in 10.0 mi SSW 10.4 mph - N/A   Mostly Cloudy
6:53 PM 78.1 °F 57.9 °F 50% 30.13 in 10.0 mi SW 12.7 mph - N/A   Clear
7:53 PM 77.0 °F 57.9 °F 52% 30.12 in 10.0 mi SW 9.2 mph - N/A   Clear
8:53 PM 73.9 °F 59.0 °F 59% 30.12 in 10.0 mi SSW 8.1 mph - N/A   Clear
9:53 PM 72.0 °F 60.1 °F 66% 30.12 in 10.0 mi SSW 8.1 mph - N/A   Clear
10:53 PM 70.0 °F 61.0 °F 73% 30.13 in 10.0 mi South 3.5 mph - N/A   Clear
11:53 PM 69.1 °F 61.0 °F 75% 30.13 in 10.0 mi Calm Calm - N/A   Clear